Lapse_Rate
6.9 7.0 7.0 7.0 7.0 6.9 6.6 6.6 6.5 6.5 6.5 6.5 6.4 6.3 6.1 5.9 5.8 5.7 5.7 5.8 5.9 5.9 6.0 6.1 6.0 6.0 6.2 6.3 6.3 6.2 6.3 6.5
7.1 7.2 7.2 7.1 7.0 6.8 6.6 6.4 6.2 6.2 6.1 6.0 5.9 5.7 5.6 5.5 5.2 5.2 5.2 5.3 5.3 5.5 5.5 5.8 5.9 5.8 5.9 6.0 6.1 6.0 6.0 6.4
7.2 7.1 7.2 7.2 6.9 6.7 6.3 6.0 5.9 5.8 5.8 5.7 5.6 5.4 5.2 5.0 5.1 5.3 5.2 5.3 5.5 5.4 5.5 5.5 5.4 5.5 5.5 5.6 5.7 5.8 5.9 6.0
7.0 7.0 7.0 6.9 6.7 6.5 6.3 6.2 6.0 6.0 6.0 5.7 5.5 5.4 5.3 5.2 5.4 5.5 5.3 5.3 5.3 5.4 5.4 5.3 5.3 5.5 5.4 5.1 4.8 5.1 5.4 5.5
6.8 6.6 6.5 6.5 6.3 6.3 6.4 6.4 6.1 6.0 6.0 6.1 6.0 5.6 5.6 5.6 5.6 5.4 5.5 5.4 5.3 5.1 5.2 5.3 5.2 5.0 5.0 5.1 5.1 4.7 4.5 4.7
6.7 6.6 6.3 6.2 6.1 6.0 5.9 5.8 5.8 5.7 5.7 5.7 5.5 5.5 5.5 5.5 5.6 5.6 5.4 5.4 5.3 5.3 5.0 5.0 4.8 4.7 4.9 5.1 5.3 5.4 5.2 4.9
6.1 6.0 6.0 5.8 5.7 5.6 5.6 5.5 5.4 5.4 5.3 5.3 5.4 5.4 5.3 5.5 5.6 5.3 5.1 5.1 4.7 4.7 4.7 4.5 4.5 4.3 4.1 4.1 4.3 4.5 4.9 5.4
5.4 5.4 5.3 5.2 5.3 5.2 5.2 5.2 5.3 5.2 5.3 5.4 5.4 5.4 5.3 5.3 5.1 4.9 4.8 4.6 4.4 4.3 4.2 4.3 4.1 3.8 3.6 3.5 3.4 3.4 3.8 4.4
5.6 5.5 5.2 4.9 5.0 4.9 4.9 4.9 5.1 5.2 5.3 5.2 5.0 5.1 4.9 5.0 4.8 4.9 4.8 4.8 4.7 4.5 4.5 4.4 4.2 3.9 3.8 3.7 3.5 3.4 3.5 3.6
5.5 5.4 5.1 4.9 4.9 5.0 5.1 5.0 5.2 5.4 5.3 5.1 5.0 4.9 4.8 4.7 4.5 4.5 4.6 4.5 4.5 4.5 4.6 4.5 4.2 4.2 4.0 3.8 3.7 3.5 3.4 3.4
5.1 5.2 5.2 5.2 5.2 5.3 5.2 5.2 5.2 5.2 5.1 5.2 5.1 5.0 4.8 4.8 4.5 4.6 4.5 4.4 4.3 4.3 4.2 4.1 4.1 4.0 3.9 3.7 3.6 3.5 3.4 3.5
5.6 5.5 5.2 5.1 5.4 5.3 5.3 5.3 5.2 5.3 5.1 5.2 5.1 5.1 5.0 4.8 5.1 4.8 4.6 4.4 4.3 4.1 4.2 4.2 4.1 3.9 3.9 3.8 4.0 4.2 4.4 4.6
5.4 5.0 5.2 5.4 5.5 5.3 5.3 5.2 5.2 5.1 5.1 5.2 5.2 5.1 5.1 5.4 4.9 4.7 4.6 4.4 4.3 4.2 4.2 4.0 4.0 4.2 4.4 4.7 4.8 5.0 5.0 5.1
4.9 4.6 5.3 5.4 5.5 5.5 5.5 5.2 4.9 5.0 5.1 5.2 5.6 5.6 5.5 5.0 4.7 4.6 4.5 4.4 4.4 4.3 4.2 4.3 4.7 4.9 5.1 5.0 5.1 5.3 5.8 6.4
5.2 5.4 5.4 5.4 5.2 5.3 5.2 5.3 4.9 4.8 5.1 5.5 5.7 5.5 5.2 4.7 4.7 4.5 4.5 4.5 4.4 4.7 5.0 5.1 5.2 5.2 5.4 5.7 6.2 6.7 6.9 7.0
5.4 5.4 5.4 5.2 5.1 5.3 5.2 5.3 5.1 5.2 5.5 5.7 5.4 5.1 4.9 4.7 4.6 4.5 4.5 4.5 4.9 5.1 5.3 5.3 5.5 5.9 6.4 6.8 6.9 7.0 7.1 7.0
5.5 5.4 5.1 5.2 5.1 5.2 5.3 5.3 5.3 5.3 5.4 5.4 5.0 4.9 4.6 4.6 4.5 4.4 4.4 4.9 5.2 5.3 5.5 5.9 6.5 6.9 7.0 7.0 6.9 6.8 6.8 6.8
5.2 5.0 5.1 5.4 5.4 5.1 4.9 5.0 5.1 5.2 5.3 5.0 4.8 4.6 4.7 4.6 4.3 4.5 4.9 5.2 5.4 5.8 6.4 7.1 7.0 6.9 6.9 6.6 6.6 6.5 6.4 6.4
5.0 5.1 5.4 5.5 5.3 5.1 5.1 5.1 5.2 5.2 4.9 4.8 4.8 4.7 4.7 4.3 4.6 4.9 5.2 5.5 6.0 6.7 7.3 7.1 6.8 6.8 6.4 6.4 6.3 6.0 5.8 5.7
Wind_Speed
13 12 10 9 7 6 6 6 6 5 5 4 5 4 4 4 5 6 4 4 3 4 4 3 4 4 4 6 7 6 6 6
11 12 12 10 9 9 8 8 7 6 5 5 4 4 4 3 3 3 4 1 1 2 3 4 4 4 5 5 6 7 7 7
12 13 13 14 13 12 10 9 9 7 6 4 3 4 3 2 3 5 5 5 3 3 4 5 5 6 7 6 7 6 6 6
10 14 16 15 15 13 12 11 10 10 7 5 5 5 5 6 6 5 6 8 7 7 7 6 7 6 7 8 9 10 8 8
6 9 13 16 16 14 13 13 12 10 10 8 8 7 6 5 5 6 5 6 7 8 9 9 8 8 9 10 9 10 11 11
7 7 9 13 14 14 14 14 13 12 10 11 8 9 7 6 6 7 7 5 6 7 8 9 9 9 10 12 12 13 11 12
8 7 8 11 14 14 13 15 15 13 11 11 12 12 10 7 6 5 5 4 5 7 8 9 10 10 12 12 14 16 14 14
11 10 9 11 14 15 14 15 15 14 13 12 11 10 8 7 4 4 5 5 5 8 10 11 10 12 13 14 15 16 15 16
12 11 10 11 13 15 15 15 15 14 13 11 8 7 5 4 2 3 4 5 6 10 11 12 14 16 14 15 14 14 17 15
13 11 10 12 14 16 16 15 14 12 11 8 8 6 5 3 3 4 5 7 8 11 12 13 15 15 16 16 14 16 17 16
15 13 13 12 12 13 13 13 13 12 11 9 7 7 5 4 4 6 8 9 11 13 14 15 16 16 17 17 16 17 18 15
17 16 15 12 12 10 11 12 13 12 10 8 8 7 5 3 5 7 9 11 12 14 14 15 17 17 17 17 18 19 19 20
16 16 16 12 10 11 11 10 10 10 8 8 8 4 4 5 8 10 11 13 13 14 15 16 17 18 17 18 19 18 19 20
19 21 17 12 11 10 11 10 9 7 7 7 5 6 6 8 9 11 12 13 14 15 16 17 18 17 18 18 19 20 20 21
22 23 16 11 10 10 9 8 7 7 7 7 7 7 6 8 10 12 13 13 15 15 16 17 18 18 18 19 19 20 19 18
23 21 17 11 10 9 8 6 5 6 7 9 7 5 7 10 12 13 14 14 15 16 17 18 18 17 14 18 18 18 17 19
23 21 18 11 11 10 5 4 5 8 9 8 4 6 9 11 12 14 15 16 16 17 17 18 19 14 20 19 20 16 18 18
22 21 15 9 9 6 6 6 7 8 8 5 4 7 10 12 13 15 16 17 17 18 18 18 19 19 21 24 25 15 17 18
18 14 8 6 9 9 8 5 7 7 5 4 6 9 11 13 14 15 15 16 17 17 18 18 19 17 24 27 27 18 17 20
Wind_Direction
215 212 207 204 193 201 181 185 160 152 139 138 140 140 131 130 109 102 110 98 82 40 48 34 0 4 3 357 348 341 322 322
220 213 207 211 200 207 198 188 178 184 187 193 183 172 159 162 160 147 162 113 111 33 359 333 329 350 354 353 343 338 333 337
231 221 215 210 211 213 203 206 190 200 198 197 219 199 200 247 220 204 232 223 249 296 317 317 315 315 312 320 326 326 328 342
235 225 223 217 218 213 217 211 202 202 202 199 201 210 227 221 208 227 207 236 244 259 273 278 287 284 300 311 311 309 315 314
275 247 230 225 224 220 221 218 212 209 206 221 232 253 261 257 261 266 274 250 255 258 271 272 270 276 282 284 286 302 300 300
303 269 250 233 225 223 224 223 222 218 221 231 235 243 252 257 252 261 265 273 274 279 277 275 273 275 279 282 282 282 284 288
303 276 244 225 218 221 225 227 225 225 223 226 232 244 249 250 241 262 269 286 290 285 295 292 287 282 279 279 280 275 274 275
302 279 245 232 223 220 222 225 229 223 223 225 226 233 232 241 251 277 302 303 300 302 306 297 293 291 288 284 279 275 273 270
302 286 265 251 240 238 229 229 229 221 221 215 199 199 211 221 225 295 303 307 300 299 295 292 289 288 286 281 277 272 271 268
318 292 263 255 250 239 230 230 227 220 210 186 186 187 194 221 252 285 298 295 295 296 295 291 288 286 281 278 273 270 268 266
323 308 282 265 266 253 231 227 218 200 183 183 182 187 198 224 264 294 299 294 291 290 286 283 281 277 274 272 271 268 265 262
328 325 317 295 277 239 221 213 196 182 177 176 183 199 213 267 291 288 291 294 289 284 282 280 276 275 275 273 271 272 270 269
326 324 314 295 252 229 215 199 185 181 179 182 197 209 239 263 283 292 292 285 283 279 278 277 275 275 275 273 271 270 270 267
323 327 320 289 246 225 199 185 186 178 187 194 200 226 247 272 288 292 290 287 285 283 281 279 280 279 279 275 272 271 269 268
321 318 314 280 243 208 190 180 188 188 203 205 220 239 265 288 297 296 294 292 289 287 286 285 284 282 279 277 274 272 270 266
315 315 312 278 228 194 195 199 184 211 217 226 236 257 287 299 300 301 297 293 290 290 289 287 286 283 280 282 282 281 278 274
323 313 308 265 220 200 209 215 254 243 230 237 263 288 302 305 306 302 299 298 297 296 293 292 290 287 287 284 279 274 271 270
316 310 303 249 220 250 249 282 269 228 234 249 290 305 307 310 308 304 303 303 301 298 297 297 294 293 292 287 282 276 270 265
299 307 288 229 257 281 299 282 244 222 232 282 308 312 310 311 306 305 305 303 303 302 302 301 298 296 291 288 284 277 269 265